Location: Great Chart
(51.1333°N, 0.8333°E)
Time: 11:41:18
(UTC+00:00)

SL-8 R/B - Pass Details

Date: 19 September 2020
Orbit: 656 x 667 km, 48.4° (Epoch: 30 October)

Event Time Altitude Azimuth Distance (km) Brightness Sun altitude
Exits shadow 04:23:59 18° 262° (W) 1,618 5.1 -12.3°
Maximum altitude 04:27:00 36° 205° (SSW) 1,035 4.4 -11.9°
Drops below altitude 10° 04:31:21 10° 139° (SE) 2,062 6.6 -11.2°
Sets 04:33:49 0° 131° (SE) 2,972 7.5 -10.8°
